DELTA 1 DEB, 19594

Orbit data source: Space-Track

DELTA 1 DEB, 19594 is space debris in SSO originally from a launch on Sun, 05 Mar 1978 UTC launched from the Air Force Western Test Range (AFWTR). Debris objects in space refer to the collection of defunct objects orbiting the Earth. Examples of debris include non-operational satellites, rocket bodies, and fragments generated from explosions, collisions, or faulty payload assembly.

Loading next visibility...
Identifier
19594, 1978-026HN
Orbit
SSO
Last TLE update
1 day ago
Origin
Manufacturer
Unknown
Mission
Spacecraft
Bus & Motor
Unknown
Mass
Unknown
Launch date (UTC)
1978-03-05 (47 years ago)
Launch vehicle
Unknown
Launch site
Air Force Western Test Range (AFWTR)
Object type
Payload
Rocket body
Debris
Shape & HBR
Unknown
Radar Cross Section
Small (<0.1 m²)

Expand to show TLE details & history

TLE from 1 day ago
0 DELTA 1 DEB
1 19594U 78026HN  25169.05669793  .00007703  00000-0  21300-2 0  9994
2 19594  98.9087 205.7916 0081565 159.0558 201.4004 14.45023559653428
Epoch: 2025-06-18T01:21Z
TLE epoch observation values (Epoch: 2025-06-18T01:21:38.701Z)
Latitude
-0.00007°
Longitude
-81.16385°
Altitude
799.036 km
Speed
7.426 km/s
True Right ascension
13h 43m 09s
True Declination
0° 00' 00"
Sunlit
Object was in daylight at epoch
Visualization orbit readout
Latitude
-68.1252°
Longitude
77.26846°
Altitude
771.455 km
Speed
7.465 km/s
Apparent Right ascension
03h 51m 44s
Apparent Declination
-60° 45' 28"
Sunlit
Object is in daylight
Visualization observer readout
Local Sidereal Time
17:36:01
Azimuth
151.025° SSE
Elevation
-63.695°
Doppler factor
1
Orbital elements
Apogee altitude
797.135 km
Perigee altitude
681.032 km
Semi-major axis
7,117.22 km
Eccentricity
0.00816
Inclination
98.9087°
RAAN
205.7916°
Arg. of periapsis
159.0558°
True anomaly
Unknown
Mean anomaly
201.4004°
Eccentric anomaly
Unknown
Mean motion
3.61474 °/min
Orbital period
99.59 mins
BSTAR
0.00213
Loading maneuver chart data...
Loading SW <> Apogee altitude chart data...
Loading historical data...
Loading historical data...
Loading historical data...
Loading historical data...
Loading historical data...
Loading historical data...
Loading historical data...

DELTA 1 DEB Visibility forecast

Observer location: undefined°, undefined°

Span
Click to sort rows by Start time (UTC) header in descending order
Start Az.
Max El. time (UTC)
Max El. Az.
Max El.
End time (UTC)
End Az.
6 mins2025-06-19 14:31:29.332Z49.601° ENE2025-06-19 14:34:29.332Z99.707° ESE22.609°2025-06-19 14:37:29.332Z146.071° SSE
6 mins2025-06-19 16:10:29.332Z337.712° N2025-06-19 16:12:29.332Z299.489° NW27.083°2025-06-19 16:16:29.332Z232.798° WSW
7 mins2025-06-20 01:42:29.332Z120.1° SE2025-06-20 01:45:29.332Z61.598° ENE29.839°2025-06-20 01:49:29.332Z5.459° NNE
7 mins2025-06-20 03:20:29.332Z215.697° SW2025-06-20 03:23:29.332Z260.057° W23.679°2025-06-20 03:27:29.332Z317.638° NNW
|